TSC206 CYYZ-EGCC

Flight info

Callsign TSC206
Flight time N/A
Altitude 33000
Route VERDO7 IPTOS Q921 AGLUK DCT BAREE N747B LOMSI/M077F340 DCT 55N050W 56N040W 57N030W 57N020W DCT PIKIL DCT SOVED/N0439F350 DCT REVNU DCT BOFUM Q37 MALUD
Aircraft A21N/M-SDE2E3FGHIRWXY/LB1

Departure

Time N/A
Airport Toronto Pearson International Airport (CYYZ)

Arrival

Time 2026-05-06 18:37
Airport Manchester Airport (EGCC)
Time Latitude Longitude Altitude Speed Heading
2026-05-06 18:15 53.53048 -5.24852 35044 ft 466 kts 92°
2026-05-06 18:15 53.52769 -5.13961 35040 ft 466 kts 93°
2026-05-06 18:16 53.52435 -5.03141 35039 ft 463 kts 94°
2026-05-06 18:16 53.52085 -4.92362 34700 ft 459 kts 94°
2026-05-06 18:17 53.51910 -4.86975 33726 ft 464 kts 94°
2026-05-06 18:17 53.51724 -4.81528 32661 ft 469 kts 94°
2026-05-06 18:17 53.51541 -4.76038 31681 ft 471 kts 94°
2026-05-06 18:17 53.51359 -4.70612 30721 ft 473 kts 94°
2026-05-06 18:18 53.51175 -4.65086 29851 ft 472 kts 93°
2026-05-06 18:18 53.50986 -4.59542 29109 ft 466 kts 94°
2026-05-06 18:18 53.50794 -4.54207 28419 ft 460 kts 94°
2026-05-06 18:18 53.50600 -4.48881 27716 ft 454 kts 94°
2026-05-06 18:19 53.50409 -4.43608 27008 ft 449 kts 94°
2026-05-06 18:19 53.50219 -4.38382 26318 ft 444 kts 94°
2026-05-06 18:19 53.50037 -4.33231 25646 ft 440 kts 93°
2026-05-06 18:19 53.49851 -4.28124 24991 ft 435 kts 93°
2026-05-06 18:20 53.49662 -4.23075 24343 ft 431 kts 94°
2026-05-06 18:20 53.49463 -4.18064 23711 ft 427 kts 94°
2026-05-06 18:20 53.49266 -4.13112 22993 ft 423 kts 94°
2026-05-06 18:20 53.49071 -4.08219 22387 ft 417 kts 94°
2026-05-06 18:21 53.48881 -4.03398 21818 ft 412 kts 94°
2026-05-06 18:21 53.48689 -3.98682 21251 ft 409 kts 94°
2026-05-06 18:21 53.48178 -3.94011 20690 ft 405 kts 107°
2026-05-06 18:21 53.47289 -3.89543 20161 ft 402 kts 109°
2026-05-06 18:22 53.46361 -3.85134 19633 ft 399 kts 109°
2026-05-06 18:22 53.45443 -3.80766 19117 ft 396 kts 109°
2026-05-06 18:22 53.44534 -3.76421 18610 ft 393 kts 109°
2026-05-06 18:22 53.43636 -3.72110 18075 ft 390 kts 109°
2026-05-06 18:23 53.42743 -3.67826 17511 ft 386 kts 109°
2026-05-06 18:23 53.41861 -3.63597 16978 ft 383 kts 109°
2026-05-06 18:23 53.41208 -3.59294 16465 ft 380 kts 96°
2026-05-06 18:23 53.40982 -3.54904 15967 ft 376 kts 93°
2026-05-06 18:24 53.40815 -3.50627 15485 ft 373 kts 92°
2026-05-06 18:24 53.40638 -3.46280 15017 ft 371 kts 93°
2026-05-06 18:24 53.40451 -3.41985 14541 ft 367 kts 93°
2026-05-06 18:24 53.40268 -3.37761 14071 ft 360 kts 93°
2026-05-06 18:25 53.40084 -3.33612 13589 ft 353 kts 93°
2026-05-06 18:25 53.39898 -3.29551 13062 ft 346 kts 93°
2026-05-06 18:25 53.39712 -3.25588 12544 ft 336 kts 93°
2026-05-06 18:25 53.39532 -3.21783 12052 ft 325 kts 93°
2026-05-06 18:26 53.39351 -3.18024 11630 ft 315 kts 93°
2026-05-06 18:26 53.39177 -3.14461 11234 ft 306 kts 93°
2026-05-06 18:26 53.39002 -3.10927 10844 ft 303 kts 93°
2026-05-06 18:26 53.38825 -3.07379 10477 ft 301 kts 93°
2026-05-06 18:27 53.38644 -3.03885 10120 ft 300 kts 94°
2026-05-06 18:27 53.38105 -3.00536 9735 ft 299 kts 116°
2026-05-06 18:27 53.36861 -2.97800 9332 ft 295 kts 135°
2026-05-06 18:27 53.35347 -2.95509 8916 ft 291 kts 139°
2026-05-06 18:28 53.33820 -2.93330 8514 ft 286 kts 140°
2026-05-06 18:28 53.32313 -2.91208 8105 ft 279 kts 140°
2026-05-06 18:28 53.30831 -2.89137 7742 ft 275 kts 140°
2026-05-06 18:28 53.29396 -2.87144 7447 ft 268 kts 140°
2026-05-06 18:29 53.27976 -2.85182 7199 ft 261 kts 140°
2026-05-06 18:29 53.26592 -2.83281 6968 ft 253 kts 140°
2026-05-06 18:29 53.25249 -2.81449 6737 ft 247 kts 140°
2026-05-06 18:29 53.23918 -2.79644 6522 ft 245 kts 140°
2026-05-06 18:30 53.22604 -2.77871 6298 ft 244 kts 140°
2026-05-06 18:30 53.21283 -2.76085 6044 ft 242 kts 138°
2026-05-06 18:30 53.20275 -2.73893 5754 ft 238 kts 113°
2026-05-06 18:30 53.19899 -2.71241 5456 ft 234 kts 92°
2026-05-06 18:31 53.19976 -2.68553 5178 ft 232 kts 81°
2026-05-06 18:31 53.20197 -2.65899 4914 ft 230 kts 80°
2026-05-06 18:31 53.20431 -2.63272 4636 ft 229 kts 80°
2026-05-06 18:31 53.20669 -2.60649 4351 ft 227 kts 80°
2026-05-06 18:32 53.20906 -2.58091 4071 ft 226 kts 80°
2026-05-06 18:32 53.21352 -2.55596 3785 ft 224 kts 63°
2026-05-06 18:32 53.22170 -2.53413 3522 ft 220 kts 51°
2026-05-06 18:32 53.23198 -2.51533 3259 ft 217 kts 50°
2026-05-06 18:33 53.23814 -2.50231 3136 ft 212 kts 50°
2026-05-06 18:33 53.24719 -2.48395 2952 ft 199 kts 51°
2026-05-06 18:33 53.25578 -2.46643 2690 ft 191 kts 51°
2026-05-06 18:33 53.26404 -2.44955 2417 ft 184 kts 51°
2026-05-06 18:34 53.27200 -2.43327 2155 ft 176 kts 52°
2026-05-06 18:34 53.27951 -2.41792 1935 ft 166 kts 52°
2026-05-06 18:34 53.28657 -2.40346 1707 ft 151 kts 52°
2026-05-06 18:34 53.29261 -2.39108 1481 ft 125 kts 52°
2026-05-06 18:35 53.29803 -2.37997 1301 ft 123 kts 52°
2026-05-06 18:35 53.30345 -2.36886 1129 ft 124 kts 51°
2026-05-06 18:35 53.30878 -2.35794 952 ft 125 kts 51°
2026-05-06 18:35 53.31424 -2.34676 782 ft 125 kts 50°
2026-05-06 18:36 53.31975 -2.33545 612 ft 125 kts 50°
2026-05-06 18:36 53.32529 -2.32424 461 ft 125 kts 49°
2026-05-06 18:36 53.33079 -2.31304 313 ft 124 kts 50°
2026-05-06 18:36 53.33611 -2.30214 237 ft 112 kts 50°
2026-05-06 18:37 53.34011 -2.29386 235 ft 68 kts 51°
2026-05-06 18:37 53.34270 -2.28849 232 ft 40 kts 52°
2026-05-06 18:37 53.34457 -2.28574 232 ft 35 kts 28°
2026-05-06 18:37 53.34595 -2.28478 234 ft 21 kts 21°
2026-05-06 18:38 53.34729 -2.28358 235 ft 23 kts 50°
2026-05-06 18:38 53.34837 -2.28143 238 ft 25 kts 51°
2026-05-06 18:38 53.34950 -2.27910 235 ft 27 kts 51°
2026-05-06 18:38 53.35073 -2.27655 238 ft 29 kts 51°
2026-05-06 18:39 53.35206 -2.27378 243 ft 32 kts 51°
2026-05-06 18:39 53.35325 -2.27194 249 ft 23 kts
2026-05-06 18:39 53.35469 -2.27317 254 ft 25 kts 321°
2026-05-06 18:40 53.35588 -2.27478 250 ft 0 kts 321°
2026-05-06 18:40 53.35602 -2.27497 250 ft 6 kts 321°
2026-05-06 18:40 53.35617 -2.27518 251 ft 5 kts 318°
2026-05-06 18:41 53.35659 -2.27579 252 ft 11 kts 319°
2026-05-06 18:41 53.35739 -2.27658 254 ft 16 kts 350°
2026-05-06 18:41 53.35836 -2.27780 258 ft 19 kts 309°
2026-05-06 18:41 53.35949 -2.27855 261 ft 18 kts 342°
2026-05-06 18:42 53.36016 -2.27933 260 ft 11 kts 320°
2026-05-06 18:42 53.36081 -2.28029 260 ft 14 kts 317°
2026-05-06 18:42 53.36157 -2.28150 260 ft 16 kts 314°
2026-05-06 18:42 53.36240 -2.28294 260 ft 18 kts 314°
2026-05-06 18:43 53.36335 -2.28451 260 ft 20 kts 328°
2026-05-06 18:43 53.36445 -2.28529 260 ft 18 kts 317°
2026-05-06 18:43 53.36536 -2.28693 260 ft 20 kts 312°
2026-05-06 18:43 53.36613 -2.28861 260 ft 13 kts 313°
2026-05-06 18:44 53.36691 -2.28948 260 ft 14 kts 314°
2026-05-06 18:44 53.36739 -2.29029 260 ft 5 kts 323°
2026-05-06 18:44 53.36784 -2.29037 260 ft 9 kts
2026-05-06 18:44 53.36837 -2.28992 260 ft 6 kts 46°
2026-05-06 18:45 53.36873 -2.28930 260 ft 9 kts 46°
2026-05-06 18:45 53.36921 -2.28848 260 ft 11 kts 45°
2026-05-06 18:45 53.36961 -2.28782 260 ft 4 kts 44°
2026-05-06 18:45 53.36969 -2.28744 260 ft 4 kts 107°
2026-05-06 18:46 53.36967 -2.28741 260 ft 0 kts 133°
2026-05-06 18:46 53.36961 -2.28722 260 ft 2 kts 116°
2026-05-06 18:46 53.36956 -2.28710 260 ft 0 kts 135°
2026-05-06 18:46 53.36953 -2.28705 260 ft 1 kts 133°
2026-05-06 18:47 53.36952 -2.28704 260 ft 1 kts 133°
2026-05-06 18:47 53.36949 -2.28698 260 ft 1 kts 134°